| time (UTC) | temp F | wind direction | speed MPH | gust MPH | rain 1hr in | rain 24hr in | rain mn in | humidity % | barometer mb |
| 20260505024844 | 53 | 282 | 1.0 | 7.0 | 0.00 | 0.00 | 0.00 | 43 | 1015.1 |
| 20260505024343 | 54 | 133 | 1.0 | 7.0 | 0.00 | 0.00 | 0.00 | 42 | 1015.1 |
| 20260505023840 | 54 | 203 | 1.0 | 7.0 | 0.00 | 0.00 | 0.00 | 41 | 1014.9 |
| 20260505023611 | 54 | 179 | 2.0 | 7.0 | 0.00 | 0.00 | 0.00 | 41 | 1015.1 |
| 20260505022834 | 54 | 224 | 2.0 | 10.0 | 0.00 | 0.00 | 0.00 | 41 | 1015.2 |
| 20260505022335 | 54 | 193 | 2.0 | 10.0 | 0.00 | 0.00 | 0.00 | 40 | 1015.2 |
| 20260505022105 | 54 | 201 | 3.0 | 10.0 | 0.00 | 0.00 | 0.00 | 39 | 1015.1 |
| 20260505021334 | 54 | 235 | 2.0 | 10.0 | 0.00 | 0.00 | 0.00 | 39 | 1014.7 |
| 20260505020835 | 54 | 173 | 2.0 | 8.0 | 0.00 | 0.00 | 0.00 | 38 | 1014.7 |
| 20260505020608 | 54 | 171 | 2.0 | 7.0 | 0.00 | 0.00 | 0.00 | 38 | 1014.7 |
| 20260505015827 | 55 | 123 | 2.0 | 8.0 | 0.00 | 0.00 | 0.00 | 39 | 1014.8 |
| 20260505014828 | 55 | 168 | 2.0 | 11.0 | 0.00 | 0.00 | 0.00 | 38 | 1014.8 |
| 20260505014328 | 55 | 238 | 2.0 | 11.0 | 0.00 | 0.00 | 0.00 | 38 | 1014.8 |
| 20260505013828 | 55 | 221 | 2.0 | 8.0 | 0.00 | 0.00 | 0.00 | 38 | 1014.9 |
| 20260505013328 | 56 | 125 | 2.0 | 9.0 | 0.00 | 0.00 | 0.00 | 37 | 1014.9 |
| 20260505012821 | 56 | 206 | 1.0 | 9.0 | 0.00 | 0.00 | 0.00 | 37 | 1015.1 |
| 20260505012322 | 56 | 116 | 2.0 | 10.0 | 0.00 | 0.00 | 0.00 | 38 | 1014.9 |
| 20260505011824 | 56 | 145 | 3.0 | 10.0 | 0.00 | 0.00 | 0.00 | 37 | 1014.9 |
| 20260505011322 | 56 | 137 | 2.0 | 11.0 | 0.00 | 0.00 | 0.00 | 38 | 1015.1 |
| 20260505010821 | 56 | 150 | 2.0 | 11.0 | 0.00 | 0.00 | 0.00 | 37 | 1014.9 |
| 20260505010323 | 57 | 189 | 3.0 | 11.0 | 0.00 | 0.00 | 0.00 | 38 | 1015.1 |
| 20260505005816 | 57 | 266 | 3.0 | 11.0 | 0.00 | 0.00 | 0.00 | 37 | 1015.1 |
| 20260505005316 | 58 | 199 | 3.0 | 9.0 | 0.00 | 0.00 | 0.00 | 38 | 1015.1 |
| 20260505004815 | 58 | 265 | 4.0 | 16.0 | 0.00 | 0.00 | 0.00 | 36 | 1014.9 |
| 20260505004316 | 58 | 257 | 4.0 | 16.0 | 0.00 | 0.00 | 0.00 | 36 | 1014.9 |
| 20260505003816 | 59 | 183 | 4.0 | 13.0 | 0.00 | 0.00 | 0.00 | 37 | 1015.1 |
| 20260505003318 | 59 | 330 | 3.0 | 13.0 | 0.00 | 0.00 | 0.00 | 36 | 1015.2 |
| 20260505002810 | 59 | 286 | 5.0 | 13.0 | 0.00 | 0.00 | 0.00 | 37 | 1015.2 |
| 20260505002539 | 59 | 242 | 6.0 | 13.0 | 0.00 | 0.00 | 0.00 | 36 | 1015.2 |
| 20260505001809 | 59 | 255 | 5.0 | 12.0 | 0.00 | 0.00 | 0.00 | 35 | 1015.1 |
| 20260505001310 | 60 | 156 | 4.0 | 11.0 | 0.00 | 0.00 | 0.00 | 36 | 1015.3 |
| 20260505000808 | 60 | 233 | 3.0 | 12.0 | 0.00 | 0.00 | 0.00 | 38 | 1015.1 |
| 20260505000308 | 60 | 77 | 3.0 | 12.0 | 0.00 | 0.00 | 0.00 | 38 | 1015.1 |
| 20260504235801 | 60 | 203 | 3.0 | 12.0 | 0.00 | 0.00 | 0.00 | 42 | 1015.1 |
| 20260504235533 | 59 | 120 | 4.0 | 13.0 | 0.00 | 0.00 | 0.00 | 41 | 1015.1 |
| 20260504234801 | 59 | 91 | 3.0 | 13.0 | 0.00 | 0.00 | 0.00 | 40 | 1015.2 |
| 20260504234302 | 59 | 129 | 2.0 | 8.0 | 0.00 | 0.00 | 0.00 | 41 | 1015.1 |
| 20260504233800 | 59 | 234 | 2.0 | 9.0 | 0.00 | 0.00 | 0.00 | 41 | 1015.2 |
| 20260504233302 | 59 | 238 | 2.0 | 9.0 | 0.00 | 0.00 | 0.00 | 40 | 1015.1 |
| 20260504232755 | 59 | 197 | 3.0 | 9.0 | 0.00 | 0.00 | 0.00 | 39 | 1015.3 |
| 20260504232256 | 59 | 133 | 3.0 | 9.0 | 0.00 | 0.00 | 0.00 | 39 | 1015.3 |
| 20260504231752 | 59 | 183 | 3.0 | 10.0 | 0.00 | 0.00 | 0.00 | 38 | 1015.4 |
| 20260504231255 | 59 | 89 | 3.0 | 10.0 | 0.00 | 0.00 | 0.00 | 39 | 1015.4 |
| 20260504230754 | 58 | 221 | 4.0 | 11.0 | 0.00 | 0.00 | 0.00 | 39 | 1015.4 |
| 20260504230254 | 59 | 247 | 4.0 | 11.0 | 0.00 | 0.00 | 0.00 | 36 | 1015.4 |
| 20260504225747 | 59 | 221 | 3.0 | 9.0 | 0.00 | 0.00 | 0.00 | 37 | 1015.5 |
| 20260504225244 | 59 | 174 | 3.0 | 14.0 | 0.00 | 0.00 | 0.00 | 37 | 1015.4 |
| 20260504225018 | 59 | 175 | 4.0 | 14.0 | 0.00 | 0.00 | 0.00 | 35 | 1015.5 |
| 20260504224018 | 59 | 228 | 3.0 | 13.0 | 0.00 | 0.00 | 0.00 | 35 | 1015.6 |
| 20260504223246 | 59 | 221 | 4.0 | 13.0 | 0.00 | 0.00 | 0.00 | 34 | 1015.5 |
| 20260504222740 | 60 | 228 | 3.0 | 12.0 | 0.00 | 0.00 | 0.00 | 32 | 1015.5 |
| 20260504222240 | 60 | 123 | 3.0 | 12.0 | 0.00 | 0.00 | 0.00 | 31 | 1015.6 |
| 20260504221740 | 60 | 220 | 4.0 | 12.0 | 0.00 | 0.00 | 0.00 | 31 | 1015.8 |
| 20260504221240 | 60 | 190 | 3.0 | 12.0 | 0.00 | 0.00 | 0.00 | 33 | 1015.9 |
| 20260504220740 | 60 | 203 | 4.0 | 12.0 | 0.00 | 0.00 | 0.00 | 32 | 1016.0 |
| 20260504220242 | 60 | 226 | 4.0 | 12.0 | 0.00 | 0.00 | 0.00 | 33 | 1016.0 |
| 20260504215734 | 60 | 190 | 3.0 | 11.0 | 0.00 | 0.00 | 0.00 | 36 | 1016.0 |
| 20260504214734 | 60 | 287 | 4.0 | 13.0 | 0.00 | 0.00 | 0.00 | 38 | 1015.9 |
| 20260504214505 | 60 | 126 | 4.0 | 11.0 | 0.00 | 0.00 | 0.00 | 39 | 1016.1 |
| 20260504214005 | 60 | 223 | 4.0 | 17.0 | 0.00 | 0.00 | 0.00 | 39 | 1016.0 |
| 20260504213234 | 60 | 198 | 4.0 | 17.0 | 0.00 | 0.00 | 0.00 | 39 | 1016.0 |
| 20260504212732 | 60 | 88 | 4.0 | 17.0 | 0.00 | 0.00 | 0.00 | 42 | 1016.0 |
| 20260504212229 | 60 | 94 | 4.0 | 17.0 | 0.00 | 0.00 | 0.00 | 41 | 1016.2 |
| 20260504212000 | 61 | 158 | 4.0 | 15.0 | 0.00 | 0.00 | 0.00 | 43 | 1016.2 |
| 20260504211500 | 61 | 213 | 4.0 | 16.0 | 0.00 | 0.00 | 0.00 | 41 | 1016.2 |
| 20260504210728 | 61 | 189 | 5.0 | 16.0 | 0.00 | 0.00 | 0.00 | 40 | 1016.1 |
| 20260504210228 | 61 | 235 | 4.0 | 12.0 | 0.00 | 0.00 | 0.00 | 41 | 1016.0 |
| 20260504205723 | 62 | 259 | 4.0 | 12.0 | 0.00 | 0.00 | 0.00 | 40 | 1016.1 |
| 20260504205222 | 62 | 226 | 4.0 | 10.0 | 0.00 | 0.00 | 0.00 | 39 | 1016.2 |
| 20260504204722 | 62 | 237 | 4.0 | 10.0 | 0.00 | 0.00 | 0.00 | 43 | 1016.1 |
| 20260504204222 | 62 | 219 | 4.0 | 12.0 | 0.00 | 0.00 | 0.00 | 42 | 1016.0 |
| 20260504203722 | 62 | 261 | 4.0 | 12.0 | 0.00 | 0.00 | 0.00 | 45 | 1016.1 |
| 20260504203223 | 61 | 234 | 4.0 | 12.0 | 0.00 | 0.00 | 0.00 | 45 | 1016.0 |
| 20260504202716 | 60 | 251 | 3.0 | 12.0 | 0.00 | 0.00 | 0.00 | 46 | 1016.0 |
| 20260504202216 | 60 | 146 | 3.0 | 14.0 | 0.00 | 0.00 | 0.00 | 44 | 1016.1 |
| 20260504201716 | 60 | 150 | 4.0 | 14.0 | 0.00 | 0.00 | 0.00 | 45 | 1016.0 |
| 20260504201448 | 60 | 140 | 3.0 | 12.0 | 0.00 | 0.00 | 0.00 | 46 | 1016.2 |
| 20260504200716 | 60 | 192 | 4.0 | 13.0 | 0.00 | 0.00 | 0.00 | 45 | 1016.4 |
| 20260504200216 | 60 | 198 | 5.0 | 13.0 | 0.00 | 0.00 | 0.00 | 44 | 1016.2 |
| 20260504195943 | 60 | 339 | 4.0 | 13.0 | 0.00 | 0.00 | 0.00 | 44 | 1016.4 |
| 20260504194713 | 60 | 190 | 4.0 | 13.0 | 0.00 | 0.00 | 0.00 | 46 | 1016.2 |
| 20260504194216 | 60 | 264 | 4.0 | 13.0 | 0.00 | 0.00 | 0.00 | 44 | 1016.1 |
| 20260504193714 | 60 | 171 | 4.0 | 13.0 | 0.00 | 0.00 | 0.00 | 46 | 1016.1 |
| 20260504193214 | 60 | 197 | 3.0 | 13.0 | 0.00 | 0.00 | 0.00 | 48 | 1016.2 |
| 20260504192713 | 60 | 244 | 3.0 | 11.0 | 0.00 | 0.00 | 0.00 | 48 | 1016.2 |
| 20260504192208 | 60 | 223 | 4.0 | 11.0 | 0.00 | 0.00 | 0.00 | 48 | 1016.1 |
| 20260504191708 | 60 | 151 | 4.0 | 11.0 | 0.00 | 0.00 | 0.00 | 47 | 1016.1 |
| 20260504191206 | 60 | 126 | 3.0 | 9.0 | 0.00 | 0.00 | 0.00 | 50 | 1016.1 |
| 20260504190708 | 60 | 219 | 3.0 | 8.0 | 0.00 | 0.00 | 0.00 | 49 | 1016.0 |
| 20260504190208 | 60 | 278 | 4.0 | 12.0 | 0.00 | 0.00 | 0.00 | 51 | 1016.1 |
| 20260504185710 | 60 | 235 | 4.0 | 11.0 | 0.00 | 0.00 | 0.00 | 52 | 1016.1 |
| 20260504185203 | 60 | 151 | 5.0 | 14.0 | 0.00 | 0.00 | 0.00 | 54 | 1016.0 |
| 20260504184704 | 60 | 110 | 4.0 | 14.0 | 0.00 | 0.00 | 0.00 | 53 | 1016.1 |
| 20260504184203 | 60 | 112 | 3.0 | 9.0 | 0.00 | 0.00 | 0.00 | 55 | 1016.2 |
| 20260504183703 | 59 | 119 | 3.0 | 11.0 | 0.00 | 0.00 | 0.00 | 55 | 1016.2 |
| 20260504183202 | 59 | 162 | 4.0 | 11.0 | 0.00 | 0.00 | 0.00 | 55 | 1016.6 |
| 20260504182702 | 59 | 158 | 3.0 | 11.0 | 0.00 | 0.00 | 0.00 | 55 | 1016.6 |
| 20260504182157 | 58 | 247 | 2.0 | 9.0 | 0.00 | 0.00 | 0.00 | 55 | 1016.6 |
| 20260504181657 | 58 | 300 | 2.0 | 11.0 | 0.00 | 0.00 | 0.00 | 56 | 1016.2 |
| 20260504181159 | 58 | 233 | 3.0 | 11.0 | 0.00 | 0.00 | 0.00 | 56 | 1016.2 |
| 20260504180658 | 58 | 126 | 4.0 | 11.0 | 0.00 | 0.00 | 0.00 | 56 | 1016.2 |
| 20260504180156 | 57 | 162 | 4.0 | 11.0 | 0.00 | 0.00 | 0.00 | 57 | 1016.2 |
| 20260504175656 | 57 | 194 | 3.0 | 10.0 | 0.00 | 0.00 | 0.00 | 58 | 1016.2 |
| 20260504175150 | 57 | 205 | 3.0 | 8.0 | 0.00 | 0.00 | 0.00 | 57 | 1016.4 |
| 20260504174651 | 57 | 226 | 2.0 | 10.0 | 0.00 | 0.00 | 0.00 | 57 | 1016.7 |
| 20260504174150 | 57 | 151 | 2.0 | 10.0 | 0.00 | 0.00 | 0.00 | 56 | 1017.0 |
| 20260504173151 | 57 | 251 | 2.0 | 11.0 | 0.00 | 0.00 | 0.00 | 55 | 1016.7 |
| 20260504172923 | 57 | 227 | 2.0 | 7.0 | 0.00 | 0.00 | 0.00 | 56 | 1017.2 |
| 20260504172144 | 57 | 244 | 2.0 | 12.0 | 0.00 | 0.00 | 0.00 | 57 | 1016.8 |
| 20260504171645 | 56 | 129 | 3.0 | 12.0 | 0.00 | 0.00 | 0.00 | 57 | 1016.7 |
| 20260504171144 | 56 | 145 | 4.0 | 13.0 | 0.00 | 0.00 | 0.00 | 59 | 1016.5 |
| 20260504170645 | 56 | 161 | 4.0 | 13.0 | 0.00 | 0.00 | 0.00 | 59 | 1016.1 |
| 20260504170144 | 56 | 90 | 3.0 | 12.0 | 0.00 | 0.00 | 0.00 | 59 | 1016.5 |
| 20260504160132 | 56 | 162 | 5.0 | 12.0 | 0.00 | 0.00 | 0.00 | 62 | 1016.4 |
| 20260504151125 | 55 | 135 | 3.0 | 10.0 | 0.00 | 0.00 | 0.00 | 64 | 1016.2 |
| 20260504150626 | 55 | 118 | 3.0 | 8.0 | 0.00 | 0.00 | 0.00 | 65 | 1016.4 |
| 20260504150127 | 55 | 220 | 3.0 | 8.0 | 0.00 | 0.00 | 0.00 | 64 | 1016.0 |
| 20260504141115 | 53 | 100 | 3.0 | 6.0 | 0.00 | 0.00 | 0.00 | 66 | 1015.6 |
| 20260504140616 | 53 | 114 | 3.0 | 7.0 | 0.00 | 0.00 | 0.00 | 67 | 1015.8 |
| 20260504140114 | 53 | 106 | 3.0 | 8.0 | 0.00 | 0.00 | 0.00 | 67 | 1016.0 |
| 20260504130548 | 48 | 120 | 0.0 | 2.0 | 0.00 | 0.00 | 0.00 | 71 | 1015.9 |
| 20260504100506 | 52 | 258 | 0.0 | 1.0 | 0.00 | 0.00 | 0.00 | 56 | 1015.9 |
| 20260504081936 | 55 | 183 | 0.0 | 5.0 | 0.00 | 0.00 | 0.00 | 50 | 1015.4 |
| 20260504081705 | 55 | 252 | 1.0 | 6.0 | 0.00 | 0.00 | 0.00 | 50 | 1015.6 |
| 20260504080935 | 55 | 266 | 1.0 | 6.0 | 0.00 | 0.00 | 0.00 | 50 | 1015.8 |
| 20260504080431 | 56 | 273 | 2.0 | 7.0 | 0.00 | 0.00 | 0.00 | 49 | 1015.8 |
| 20260504050353 | 61 | 259 | 2.0 | 8.0 | 0.00 | 0.00 | 0.00 | 34 | 1015.9 |
| 20260504045853 | 61 | 212 | 1.0 | 8.0 | 0.00 | 0.00 | 0.00 | 33 | 1015.9 |
| 20260504045355 | 61 | 265 | 2.0 | 9.0 | 0.00 | 0.00 | 0.00 | 33 | 1016.1 |
| 20260504044853 | 62 | 242 | 4.0 | 11.0 | 0.00 | 0.00 | 0.00 | 33 | 1016.1 |
| 20260504044350 | 61 | 264 | 3.0 | 11.0 | 0.00 | 0.00 | 0.00 | 33 | 1016.0 |
| 20260504043346 | 62 | 178 | 3.0 | 10.0 | 0.00 | 0.00 | 0.00 | 32 | 1015.9 |
| 20260504042845 | 62 | 250 | 2.0 | 10.0 | 0.00 | 0.00 | 0.00 | 32 | 1016.0 |
| 20260504042346 | 62 | 238 | 3.0 | 12.0 | 0.00 | 0.00 | 0.00 | 32 | 1016.1 |
| 20260504041847 | 62 | 241 | 3.0 | 12.0 | 0.00 | 0.00 | 0.00 | 32 | 1015.8 |
| 20260504041345 | 62 | 235 | 3.0 | 12.0 | 0.00 | 0.00 | 0.00 | 31 | 1015.9 |
| 20260504041116 | 62 | 267 | 3.0 | 12.0 | 0.00 | 0.00 | 0.00 | 31 | 1015.8 |
| 20260504040339 | 62 | 251 | 2.0 | 7.0 | 0.00 | 0.00 | 0.00 | 31 | 1015.6 |
| 20260504035841 | 62 | 272 | 1.0 | 5.0 | 0.00 | 0.00 | 0.00 | 31 | 1015.5 |
| 20260504035340 | 62 | 145 | 1.0 | 5.0 | 0.00 | 0.00 | 0.00 | 31 | 1015.4 |
| 20260504035111 | 62 | 223 | 1.0 | 6.0 | 0.00 | 0.00 | 0.00 | 31 | 1015.4 |
| 20260504034339 | 62 | 250 | 1.0 | 6.0 | 0.00 | 0.00 | 0.00 | 31 | 1015.4 |
| 20260504033838 | 63 | 227 | 1.0 | 6.0 | 0.00 | 0.00 | 0.00 | 30 | 1015.3 |
| 20260504033333 | 63 | 214 | 1.0 | 6.0 | 0.00 | 0.00 | 0.00 | 30 | 1015.2 |
| 20260504032833 | 63 | 255 | 1.0 | 5.0 | 0.00 | 0.00 | 0.00 | 30 | 1015.1 |
| 20260504032335 | 63 | 247 | 1.0 | 6.0 | 0.00 | 0.00 | 0.00 | 30 | 1014.9 |
| 20260504031834 | 63 | 165 | 2.0 | 7.0 | 0.00 | 0.00 | 0.00 | 30 | 1015.1 |
| 20260504031332 | 63 | 254 | 1.0 | 7.0 | 0.00 | 0.00 | 0.00 | 30 | 1014.9 |
| 20260504030834 | 63 | 269 | 0.0 | 6.0 | 0.00 | 0.00 | 0.00 | 30 | 1014.9 |
| 20260504030326 | 64 | 228 | 0.0 | 6.0 | 0.00 | 0.00 | 0.00 | 29 | 1014.8 |
| 20260504025323 | 64 | 244 | 2.0 | 7.0 | 0.00 | 0.00 | 0.00 | 29 | 1014.6 |